| time (UTC) | temp F | wind direction | speed MPH | gust MPH | rain 1hr in | rain 24hr in | rain mn in | humidity % | barometer mb |
| 20260508170037 | 44 | 244 | 2.0 | 4.0 | 0.00 | 0.00 | 0.00 | 80 | 958.7 |
| 20260508164535 | 43 | 252 | 2.0 | 5.0 | 0.00 | 0.00 | 0.00 | 84 | 958.7 |
| 20260508163035 | 41 | 298 | 1.0 | 4.0 | 0.00 | 0.00 | 0.00 | 87 | 958.8 |
| 20260508161531 | 39 | 319 | 0.0 | 4.0 | 0.00 | 0.00 | 0.00 | 89 | 958.8 |
| 20260508160029 | 40 | 271 | 1.0 | 3.0 | 0.00 | 0.00 | 0.00 | 88 | 959.0 |
| 20260508154527 | 41 | 280 | 1.0 | 6.0 | 0.00 | 0.00 | 0.00 | 86 | 958.6 |
| 20260508153030 | 41 | 288 | 0.0 | 1.0 | 0.00 | 0.00 | 0.00 | 85 | 958.3 |
| 20260508151525 | 41 | 355 | 0.0 | 1.0 | 0.00 | 0.00 | 0.00 | 84 | 958.4 |
| 20260508150046 | 40 | 46 | 0.0 | 1.0 | 0.00 | 0.00 | 0.00 | 87 | 958.3 |
| 20260508144524 | 40 | 46 | 0.0 | 3.0 | 0.00 | 0.00 | 0.00 | 87 | 958.5 |
| 20260508143023 | 40 | 184 | 0.0 | 2.0 | 0.00 | 0.00 | 0.00 | 87 | 958.2 |
| 20260508141529 | 40 | 245 | 1.0 | 3.0 | 0.00 | 0.00 | 0.00 | 86 | 958.4 |
| 20260508140027 | 40 | 241 | 1.0 | 5.0 | 0.00 | 0.00 | 0.00 | 84 | 958.4 |
| 20260508134520 | 41 | 203 | 0.0 | 2.0 | 0.00 | 0.00 | 0.00 | 84 | 958.1 |
| 20260508133021 | 41 | 146 | 0.0 | 0.0 | 0.00 | 0.00 | 0.00 | 84 | 957.9 |
| 20260508131517 | 41 | 142 | 0.0 | 6.0 | 0.00 | 0.00 | 0.00 | 83 | 957.8 |
| 20260508130016 | 41 | 151 | 3.0 | 7.0 | 0.00 | 0.00 | 0.00 | 84 | 957.6 |
| 20260508124515 | 41 | 94 | 3.0 | 6.0 | 0.00 | 0.00 | 0.00 | 85 | 957.5 |
| 20260508123016 | 40 | 124 | 0.0 | 3.0 | 0.00 | 0.00 | 0.00 | 84 | 957.7 |
| 20260508121512 | 40 | 163 | 0.0 | 4.0 | 0.00 | 0.00 | 0.00 | 84 | 957.8 |
| 20260508120010 | 40 | 90 | 1.0 | 3.0 | 0.00 | 0.00 | 0.00 | 84 | 957.6 |
| 20260508114509 | 40 | 250 | 0.0 | 0.0 | 0.00 | 0.00 | 0.00 | 83 | 957.9 |
| 20260508113008 | 39 | 250 | 0.0 | 0.0 | 0.00 | 0.00 | 0.00 | 84 | 957.9 |
| 20260508111506 | 39 | 250 | 0.0 | 0.0 | 0.00 | 0.00 | 0.00 | 86 | 957.8 |
| 20260508110005 | 38 | 250 | 0.0 | 1.0 | 0.00 | 0.00 | 0.00 | 87 | 957.9 |
| 20260508104504 | 38 | 250 | 0.0 | 0.0 | 0.00 | 0.00 | 0.00 | 90 | 957.8 |
| 20260508103031 | 37 | 250 | 0.0 | 2.0 | 0.00 | 0.00 | 0.00 | 90 | 957.8 |
| 20260508101557 | 36 | 249 | 0.0 | 0.0 | 0.00 | 0.00 | 0.00 | 91 | 957.8 |
| 20260508100056 | 36 | 249 | 0.0 | 0.0 | 0.00 | 0.00 | 0.00 | 90 | 957.9 |
| 20260508094554 | 36 | 249 | 0.0 | 0.0 | 0.00 | 0.00 | 0.00 | 90 | 957.8 |
| 20260508093052 | 36 | 249 | 0.0 | 0.0 | 0.00 | 0.00 | 0.00 | 90 | 957.5 |
| 20260508091600 | 36 | 249 | 0.0 | 0.0 | 0.00 | 0.00 | 0.00 | 89 | 957.6 |
| 20260508090046 | 37 | 249 | 0.0 | 1.0 | 0.00 | 0.00 | 0.00 | 88 | 957.3 |
| 20260508084550 | 38 | 249 | 1.0 | 3.0 | 0.00 | 0.00 | 0.00 | 88 | 957.2 |
| 20260508083051 | 38 | 242 | 3.0 | 7.0 | 0.00 | 0.00 | 0.00 | 87 | 957.4 |
| 20260508081543 | 39 | 252 | 3.0 | 7.0 | 0.00 | 0.00 | 0.00 | 87 | 957.0 |
| 20260508080054 | 39 | 244 | 3.0 | 8.0 | 0.00 | 0.00 | 0.00 | 86 | 956.8 |
| 20260508074537 | 40 | 234 | 4.0 | 9.0 | 0.00 | 0.00 | 0.00 | 86 | 956.9 |
| 20260508073032 | 40 | 236 | 2.0 | 9.0 | 0.00 | 0.00 | 0.00 | 86 | 957.0 |
| 20260508071531 | 41 | 218 | 2.0 | 10.0 | 0.00 | 0.00 | 0.00 | 86 | 957.1 |
| 20260508070028 | 41 | 159 | 2.0 | 6.0 | 0.00 | 0.00 | 0.00 | 85 | 957.0 |
| 20260508064539 | 41 | 119 | 3.0 | 6.0 | 0.00 | 0.00 | 0.00 | 83 | 956.9 |
| 20260508063023 | 41 | 170 | 1.0 | 3.0 | 0.00 | 0.00 | 0.00 | 82 | 957.0 |
| 20260508061520 | 41 | 161 | 1.0 | 5.0 | 0.00 | 0.00 | 0.00 | 80 | 957.0 |
| 20260508060019 | 41 | 140 | 1.0 | 3.0 | 0.00 | 0.00 | 0.00 | 79 | 956.8 |
| 20260508054532 | 41 | 157 | 0.0 | 2.0 | 0.00 | 0.00 | 0.00 | 77 | 957.0 |
| 20260508053015 | 42 | 152 | 1.0 | 4.0 | 0.00 | 0.00 | 0.00 | 75 | 957.0 |
| 20260508051513 | 42 | 167 | 0.0 | 3.0 | 0.00 | 0.00 | 0.00 | 72 | 957.1 |
| 20260508050010 | 42 | 165 | 0.0 | 2.0 | 0.00 | 0.00 | 0.00 | 72 | 957.0 |
| 20260508044510 | 43 | 165 | 0.0 | 3.0 | 0.00 | 0.00 | 0.00 | 71 | 957.4 |
| 20260508043002 | 43 | 165 | 0.0 | 3.0 | 0.00 | 0.00 | 0.00 | 70 | 957.4 |
| 20260508041603 | 43 | 161 | 2.0 | 4.0 | 0.00 | 0.00 | 0.00 | 68 | 957.3 |
| 20260508040100 | 42 | 80 | 0.0 | 2.0 | 0.00 | 0.00 | 0.00 | 69 | 957.2 |
| 20260508034554 | 42 | 80 | 0.0 | 1.0 | 0.00 | 0.00 | 0.00 | 71 | 957.1 |
| 20260508033053 | 43 | 80 | 2.0 | 3.0 | 0.00 | 0.00 | 0.00 | 68 | 956.7 |
| 20260508031553 | 43 | 360 | 0.0 | 1.0 | 0.00 | 0.00 | 0.00 | 67 | 956.8 |
| 20260508030056 | 43 | 360 | 0.0 | 1.0 | 0.00 | 0.00 | 0.00 | 65 | 956.6 |
| 20260508024553 | 43 | 350 | 0.0 | 3.0 | 0.00 | 0.00 | 0.00 | 65 | 956.5 |
| 20260508023051 | 43 | 33 | 1.0 | 3.0 | 0.00 | 0.00 | 0.00 | 66 | 956.4 |
| 20260508021551 | 42 | 227 | 0.0 | 1.0 | 0.00 | 0.00 | 0.00 | 68 | 956.2 |
| 20260508020056 | 43 | 206 | 0.0 | 3.0 | 0.00 | 0.00 | 0.00 | 67 | 956.4 |
| 20260508014551 | 43 | 71 | 1.0 | 2.0 | 0.00 | 0.00 | 0.00 | 67 | 956.2 |
| 20260508013049 | 43 | 280 | 0.0 | 3.0 | 0.00 | 0.00 | 0.00 | 70 | 956.1 |
| 20260508011551 | 44 | 297 | 1.0 | 3.0 | 0.00 | 0.00 | 0.00 | 69 | 956.1 |
| 20260508010049 | 44 | 307 | 0.0 | 2.0 | 0.00 | 0.00 | 0.00 | 69 | 956.0 |
| 20260508004552 | 45 | 307 | 0.0 | 0.0 | 0.00 | 0.00 | 0.00 | 66 | 955.9 |
| 20260508003050 | 45 | 307 | 0.0 | 2.0 | 0.00 | 0.00 | 0.00 | 68 | 955.7 |
| 20260508001547 | 46 | 307 | 0.0 | 2.0 | 0.00 | 0.00 | 0.00 | 66 | 955.6 |
| 20260508000055 | 46 | 308 | 0.0 | 2.0 | 0.00 | 0.00 | 0.00 | 65 | 955.5 |
| 20260507234554 | 47 | 308 | 1.0 | 3.0 | 0.00 | 0.00 | 0.00 | 63 | 955.4 |
| 20260507233108 | 48 | 255 | 0.0 | 3.0 | 0.00 | 0.00 | 0.00 | 62 | 955.3 |
| 20260507231546 | 50 | 264 | 1.0 | 3.0 | 0.00 | 0.00 | 0.00 | 60 | 955.3 |
| 20260507230047 | 49 | 267 | 1.0 | 4.0 | 0.00 | 0.00 | 0.00 | 57 | 955.2 |
| 20260507224544 | 50 | 226 | 2.0 | 4.0 | 0.00 | 0.00 | 0.00 | 58 | 955.2 |
| 20260507223055 | 50 | 264 | 2.0 | 4.0 | 0.00 | 0.00 | 0.00 | 58 | 955.2 |
| 20260507221543 | 49 | 270 | 1.0 | 4.0 | 0.00 | 0.00 | 0.00 | 60 | 955.2 |
| 20260507220041 | 50 | 279 | 2.0 | 6.0 | 0.00 | 0.00 | 0.00 | 57 | 955.1 |
| 20260507214542 | 51 | 277 | 2.0 | 4.0 | 0.00 | 0.00 | 0.00 | 58 | 955.3 |
| 20260507213141 | 52 | 263 | 2.0 | 6.0 | 0.00 | 0.00 | 0.00 | 54 | 955.4 |
| 20260507211547 | 52 | 258 | 2.0 | 4.0 | 0.00 | 0.00 | 0.00 | 52 | 955.3 |
| 20260507210057 | 54 | 284 | 5.0 | 9.0 | 0.00 | 0.00 | 0.00 | 48 | 955.3 |
| 20260507204544 | 52 | 259 | 2.0 | 7.0 | 0.00 | 0.01 | 0.00 | 52 | 955.2 |
| 20260507203038 | 52 | 261 | 4.0 | 6.0 | 0.00 | 0.01 | 0.00 | 52 | 955.3 |
| 20260507201535 | 52 | 261 | 2.0 | 6.0 | 0.00 | 0.01 | 0.00 | 56 | 955.3 |
| 20260507200135 | 54 | 220 | 2.0 | 7.0 | 0.00 | 0.01 | 0.00 | 51 | 955.3 |
| 20260507194546 | 53 | 259 | 3.0 | 7.0 | 0.00 | 0.03 | 0.00 | 50 | 955.4 |
| 20260507193031 | 53 | 253 | 2.0 | 4.0 | 0.00 | 0.03 | 0.00 | 53 | 955.6 |
| 20260507191529 | 55 | 274 | 3.0 | 6.0 | 0.00 | 0.03 | 0.00 | 49 | 955.6 |
| 20260507190040 | 51 | 264 | 2.0 | 5.0 | 0.00 | 0.03 | 0.00 | 53 | 955.8 |
| 20260507184540 | 53 | 263 | 3.0 | 6.0 | 0.00 | 0.03 | 0.00 | 52 | 956.0 |
| 20260507183027 | 51 | 252 | 3.0 | 9.0 | 0.00 | 0.03 | 0.00 | 50 | 956.1 |
| 20260507181526 | 52 | 270 | 3.0 | 6.0 | 0.00 | 0.03 | 0.00 | 50 | 956.1 |
| 20260507180025 | 53 | 254 | 2.0 | 5.0 | 0.00 | 0.03 | 0.00 | 53 | 956.3 |
| 20260507174526 | 52 | 254 | 4.0 | 9.0 | 0.00 | 0.04 | 0.00 | 54 | 956.4 |
| 20260507173036 | 54 | 245 | 3.0 | 8.0 | 0.00 | 0.04 | 0.00 | 52 | 956.5 |
| 20260507171518 | 53 | 271 | 3.0 | 6.0 | 0.00 | 0.04 | 0.00 | 54 | 956.7 |